Location: Eenrum
(53.3642°N, 6.4622°E)
Time: 11:45:18
(UTC+00:00)

Daily predictions for brighter satellites

Satellite Brightness Start Highest point End
(mag) Time Altitude Azimuth Time Altitude Azimuth Time Altitude Azimuth
ADEOS 4.1 18:54:03 10° SE 18:58:55 41° ENE 19:03:47 10° N
Feng Yun 1-1 Rocket 4.4 18:54:50 10° SE 19:00:17 57° ENE 19:05:39 10° N
SL-16 R/B 2.4 18:55:14 10° SSW 19:00:56 84° NW 19:06:39 10° NNE
Terra 2.4 18:57:25 10° SE 19:01:47 40° ENE 19:06:09 10° N
ATLAS 5 CENTAUR R/B 2.4 18:59:01 10° W 19:01:51 35° NNW 19:05:00 10° NE
CSL-04 Debris 4.2 18:59:03 10° SSE 19:04:24 79° ENE 19:09:48 10° NNW
Meteor 1-22 Rocket 4.3 19:00:02 10° S 19:05:41 82° E 19:11:37 10° NNE
Cosmos 1898 Rocket 3.7 19:01:18 10° S 19:06:18 47° ESE 19:11:17 10° NE
CZ-4 R/B 1.2 19:02:48 10° SSE 19:06:35 66° ENE 19:10:19 10° N
Resurs 01 Rocket 3.6 19:04:49 10° SSW 19:08:45 32° W 19:12:42 10° NNW
Okean O Rocket 2.8 19:07:16 10° ESE 19:10:56 27° ENE 19:14:36 10° N
Meteor 1-24 Rocket 4.0 19:07:17 10° NNW 19:12:42 74° W 19:18:15 10° S
Cosmos 2333 4.2 19:10:13 10° SSW 19:15:44 62° ESE 19:21:16 10° NE
Cosmos 1680 Rocket 3.6 19:11:36 10° NNW 19:16:47 61° ENE 19:21:55 10° SE
Cosmos 372 Rocket 4.0 19:11:54 10° SSW 19:17:05 72° ESE 19:22:20 10° NNE
Cosmos 2219 Rocket 2.3 19:16:11 10° S 19:21:35 53° ESE 19:27:02 10° NE
SPOT 5 3.2 19:17:19 10° S 19:22:02 66° WSW 19:26:33 10° NNW
CZ-4B R/B 4.0 19:20:43 10° S 19:24:18 66° WSW 19:28:02 10° NNW
Cosmos 2074 Rocket 4.0 19:18:43 10° S 19:24:57 88° E 19:31:16 10° N
Meteor 1-31 Rocket 3.0 19:23:28 10° S 19:26:57 63° WSW 19:30:29 10° NNW
Cosmos 1937 Rocket 3.7 19:22:42 10° S 19:27:49 53° ESE 19:32:58 10° NNE
SL-24 R/B - RUBIN 2 3.6 19:26:43 10° NW 19:31:07 90° SSE 19:35:17 12° SE
Cosmos 923 Rocket 4.1 19:27:26 10° NNW 19:32:48 83° WSW 19:38:05 10° SSE
Cosmos 2369 Rocket 4.3 19:29:53 10° NNW 19:33:29 17° NNE 19:37:05 10° ENE
USA 234 3.3 19:27:36 10° ENE 19:34:09 71° SSE 19:40:42 10° SW
Cosmos 2112 Rocket 4.0 19:29:09 10° NNW 19:34:23 69° ENE 19:39:17 11° SE
USA 186 2.4 19:34:28 18° E 19:35:04 20° ENE 19:36:45 10° NNE
NOSS 2-3 (E) 4.2 19:31:44 10° NW 19:36:31 84° SW 19:42:20 13° SE
SL-8 Rocket 4.5 19:31:36 10° SSE 19:37:19 40° E 19:43:07 10° NNE
USA 238 DEB 4.2 19:30:52 10° NW 19:37:52 59° NNE 19:44:50 13° ESE
USA 238 4.2 19:31:02 10° NW 19:38:02 59° NNE 19:45:00 13° ESE
COSMOS 2428 3.5 19:34:19 10° SSE 19:39:06 28° ESE 19:43:56 10° NE
NOSS 2-3 (C) 4.1 19:35:18 10° NW 19:39:58 85° NE 19:45:27 14° SE
Cosmos 1953 3.3 19:37:48 10° SSW 19:41:15 45° WNW 19:44:46 10° N
PAYLOAD B 4.3 19:35:52 10° SSE 19:41:22 82° WSW 19:46:54 10° NNW
Meteor 1-15 Rocket 4.4 19:36:00 10° SSW 19:41:34 77° WNW 19:47:11 10° NNE
CZ-4B R/B 3.3 19:36:19 10° SSE 19:41:52 85° ENE 19:47:32 10° NNW
MetOp-B 4.1 19:36:53 10° SSE 19:42:15 86° ENE 19:47:40 10° NNW
CZ-4B DEB 4.5 19:37:04 10° S 19:42:31 72° WSW 19:48:02 10° NNW
Cosmos 2278 Rocket 2.6 19:37:51 10° NNW 19:43:25 50° NE 19:47:49 16° ESE
Cosmos 2366 rocket 4.4 19:41:32 10° SSE 19:47:16 42° E 19:53:00 10° NNE
NOSS 3-2 (C) 4.2 19:41:18 10° NW 19:48:21 70° SW 19:56:23 12° SSE
Cosmos 1610 Rocket 4.5 19:43:39 10° S 19:49:58 84° E 19:56:15 10° NNE
Ariane Rocket 4.1 19:46:48 15° ESE 19:50:00 29° ENE 19:54:18 10° N
Cosmos 2333 Rocket 3.2 19:44:49 10° SW 19:50:20 51° NW 19:55:53 10° NNE
Cosmos 1703 Rocket 4.1 19:48:37 10° NNW 19:52:54 59° W 19:57:07 10° S
Geosat 3.9 19:48:39 10° NE 19:53:41 70° ESE 19:58:39 10° SSW
BREEZE-M DEB (TANK) 2.4 19:54:15 10° WSW 19:56:43 46° S 19:59:32 18° ESE
Spot 2 Rocket 3.5 19:53:55 14° SSE 19:58:13 68° ENE 20:03:14 10° N
Cosmos 1470 Rocket 4.3 19:54:29 10° SSW 19:58:47 56° WNW 20:03:05 10° N
NOSS 2-3 (D) 4.4 19:54:01 10° NW 19:58:49 67° SW 20:03:54 16° SSE
Lacrosse 5 rocket 1.5 19:57:11 10° SSW 20:00:02 29° SE 20:00:41 27° ESE
CZ-2C R/B 3.7 20:00:39 19° E 20:01:12 20° ENE 20:03:27 10° NNE
Cosmos 1378 Rocket 4.5 19:57:15 10° N 20:01:16 33° ENE 20:03:21 22° ESE
ARIANE 6 FM1 Upper Stage 2.5 19:57:18 10° SW 20:01:26 88° SE 20:05:29 10° NE
ERS-1 Rocket 3.4 19:59:01 10° S 20:03:57 60° WSW 20:08:56 10° NNW
Cosmos 1933 Rocket 3.5 20:01:47 10° S 20:06:09 86° E 20:10:35 10° NNE
Cosmos 1943 Rocket 2.2 20:03:22 10° NNW 20:09:05 80° ENE 20:12:59 21° SE
Helios 1A Rocket 3.7 20:07:01 10° N 20:10:06 41° WNW 20:13:10 10° SW
YAOGAN 11 4.2 20:06:29 10° NNE 20:10:37 50° E 20:13:55 15° S
Cosmos 2218 Rocket 4.0 20:06:36 10° S 20:12:35 58° E 20:18:36 10° NNE
Meteor 1-11 4.4 20:07:41 10° N 20:13:10 55° ENE 20:16:33 23° SE
In-Cosmos 22 Rocket 4.2 20:08:47 10° NNW 20:14:10 76° W 20:19:03 12° S
USA 59 Rocket 0.5 20:12:47 10° NW 20:15:40 34° NNE 20:17:17 22° E
Meteor 1-12 Rocket 4.5 20:09:43 10° SSW 20:15:43 81° WNW 20:21:48 10° NNE
MOS 1-B 4.4 20:14:20 15° SSE 20:19:15 85° WSW 20:25:05 10° NNW
Cosmos 1733 Rocket 3.6 20:18:21 27° SE 20:19:57 38° E 20:24:02 10° NNE
Cosmos 494 Rocket 4.4 20:17:24 10° NNW 20:22:28 58° WSW 20:26:28 16° S
SeaSat 1 3.5 20:19:54 19° E 20:22:39 34° NE 20:27:04 10° NNW
CZ-4B R/B 3.5 20:20:21 26° SE 20:22:58 57° ENE 20:27:40 10° N
NOSS 3-4 (A) 4.2 20:23:13 24° ESE 20:23:13 24° ESE 20:27:26 10° ENE
NOSS 3-4 (C) 4.2 20:23:46 24° ESE 20:23:46 24° ESE 20:27:57 10° ENE
Okean-O 2.7 20:20:35 19° S 20:23:40 79° WSW 20:28:05 10° NNW
IRS-1C Rocket 4.4 20:20:58 25° SE 20:23:50 52° ENE 20:28:58 10° N
ATLAS 3B R/B 3.7 20:18:18 10° WSW 20:25:59 58° NNW 20:33:46 10° NE
Cosmos 1048 Rocket 3.9 20:21:50 10° NNW 20:26:59 86° ENE 20:29:52 27° SSE
Cosmos 1821 Rocket 4.1 20:22:24 17° SSE 20:27:05 55° E 20:33:13 10° NNE
Cosmos 2360 Rocket 3.5 20:23:53 10° WSW 20:29:14 43° NW 20:34:39 10° NNE
Timation 2 Rocket 4.0 20:26:14 10° NW 20:32:29 88° NE 20:36:19 26° SE
NOSS 2-1 (E) 4.0 20:31:18 10° NW 20:34:13 34° NNE 20:35:22 26° ENE
NOSS 2-1 (C) 3.8 20:33:00 10° NW 20:35:56 38° NE 20:36:58 30° ENE
Cosmos 1869 Rocket 3.8 20:31:47 10° SSW 20:36:09 69° WNW 20:40:34 10° N
Cosmos 2322 Rocket 3.8 20:32:09 10° WSW 20:37:21 37° NW 20:42:34 10° NNE
Aureole 3 3.5 20:34:03 10° N 20:38:01 75° ENE 20:40:03 33° SSE
Meteor 2-21 4.4 20:32:43 10° N 20:38:52 85° E 20:42:49 24° SSE
Terra 3.3 20:35:08 10° SSW 20:39:23 33° W 20:43:39 10° NNW
CZ-4 R/B 4.0 20:38:52 10° WSW 20:41:01 14° W 20:43:09 10° NW
NOSS 2-1 (D) 3.5 20:38:41 10° NW 20:41:42 46° NE 20:42:33 37° ENE
Cosmos 468 4.5 20:37:54 10° NNW 20:43:09 72° ENE 20:45:23 35° SE
Cosmos 2242 Rocket 3.6 20:39:46 10° NNW 20:44:18 85° W 20:46:21 32° S
ATLAS 5 CENTAUR R/B 3.7 20:42:32 10° NW 20:44:50 17° N 20:47:23 10° NE
SL-08 R/B 3.8 20:41:32 10° N 20:46:21 62° WNW 20:51:11 10° SSW
Okean O Rocket 2.4 20:43:57 18° SSW 20:46:56 46° W 20:51:09 10° NNW
Cosmos 1025 Rocket 3.2 20:44:23 10° N 20:48:32 51° ENE 20:49:24 43° ESE
Cosmos 2237 Rocket 2.6 20:47:31 33° SSE 20:49:09 40° ESE 20:54:27 10° NE
Cosmos 1980 4.0 20:47:57 31° SSE 20:49:57 43° ESE 20:55:16 10° NE
Cosmos 1125 Rocket 4.1 20:51:20 35° ESE 20:51:46 35° ESE 20:56:30 10° NE
Cosmos 2292 Rocket 4.1 20:46:20 10° N 20:52:20 63° ENE 20:54:03 39° SE
CZ-4B R/B 2.7 20:51:35 45° S 20:52:33 69° WSW 20:56:06 10° NNW
Cosmos 2322 3.7 20:47:20 10° SSW 20:53:05 88° NW 20:58:51 10° NNE
ASTEX 1 3.3 20:50:47 29° S 20:53:18 84° W 20:58:15 10° N
Cosmos 2341 Rocket 4.3 20:48:49 10° SSW 20:55:02 70° WNW 21:01:21 10° N
Cosmos 1400 Rocket 2.6 21:03:02 59° ENE 21:03:02 59° ENE 21:06:21 10° NNE
USA 186 4.0 21:04:43 12° W 21:04:43 12° W 21:05:33 10° WNW
SPOT 3 Rocket 3.7 21:02:10 31° S 21:04:41 69° WSW 21:09:53 10° NNW
Cosmos 2219 Rocket 3.6 21:00:33 10° WSW 21:05:45 38° NW 21:10:59 10° NNE
Meteor 2-21 Rocket 4.4 21:05:47 10° NNW 21:11:54 80° W 21:14:51 33° S
USA 234 3.5 21:10:43 10° ENE 21:17:14 71° NNW 21:23:46 10° W
Cosmos 2369 Rocket 2.9 21:13:40 10° NNW 21:19:01 43° NE 21:20:57 32° E
Cosmos 1674 Rocket 3.6 21:14:49 10° NNW 21:19:07 72° W 21:19:57 54° SSW
Cosmos 1908 Rocket 3.9 21:22:14 48° E 21:22:14 48° E 21:26:09 10° NNE
COSMOS 2428 3.1 21:17:15 10° SW 21:22:57 66° NW 21:28:42 10° NNE
Helios 1B rocket 3.2 21:23:49 34° NE 21:23:49 34° NE 21:26:33 10° N
Cosmos 1727 Rocket 4.3 21:19:00 10° NNW 21:25:17 64° W 21:28:33 30° SSW
NOSS 0 Rocket 3.9 21:19:38 10° SSW 21:25:53 89° WNW 21:32:11 10° NE
Cosmos 2278 Rocket 3.2 21:22:09 10° NW 21:27:23 39° WSW 21:29:39 27° SSW
Ariane Rocket 3.4 21:26:52 36° SSW 21:28:38 54° W 21:33:36 10° NNW
USA 238 DEB 4.2 21:21:53 10° NW 21:29:02 58° SW 21:32:16 36° S
USA 238 4.2 21:22:03 10° NW 21:29:13 58° SW 21:32:26 36° S
Cosmos 2221 Rocket 3.4 21:25:22 10° N 21:29:47 89° ENE 21:30:11 74° SSE
Cosmos 1346 Rocket 2.8 21:28:12 10° NNW 21:31:34 64° WNW 21:31:34 64° WNW
CZ-2C R/B 4.0 21:32:30 26° W 21:32:30 26° W 21:34:39 10° NW
Helios 1A 4.0 21:30:18 10° NNE 21:32:54 31° ENE 21:32:54 31° ENE
Lacrosse 5 rocket 3.1 21:33:18 10° WSW 21:34:04 16° W 21:34:04 16° W
ARIANE 6 FM1 Upper Stage 4.5 21:37:11 10° W 21:40:50 31° NNW 21:44:26 10° NE
Cosmos 2058 4.2 21:38:53 10° N 21:41:48 29° NE 21:41:48 29° NE
DNEPR-1 R/B 3.5 21:45:57 71° NE 21:45:57 71° NE 21:50:00 10° NE
Cosmos 1656 Rocket 3.5 21:43:59 10° NW 21:49:25 74° WSW 21:50:17 61° S
Cosmos 1943 Rocket 4.0 21:47:55 10° NW 21:52:12 22° WSW 21:54:29 17° SW
Cosmos 405 Rocket 4.3 21:51:13 10° N 21:52:34 23° N 21:52:34 23° N
SJ 16-02 3.6 21:53:08 10° N 21:55:33 15° NE 21:56:47 13° ENE
SL-16 R/B 2.9 21:58:05 37° E 21:58:05 37° E 22:02:25 10° NE
SeaSat 1 2.6 21:59:30 56° SW 21:59:51 58° WSW 22:04:42 10° NW
Cosmos 2123 Rocket 4.3 21:55:43 10° NNW 22:01:52 61° W 22:03:50 42° SSW
USA 59 Rocket 1.4 22:01:08 10° WNW 22:02:48 25° W 22:02:48 25° W
CZ-2C R/B 4.4 22:02:52 19° E 22:04:39 22° NE 22:08:47 10° N
Cosmos 1934 Rocket 4.0 22:03:44 48° SSW 22:05:39 83° W 22:11:57 10° N
Cosmos 1140 Rocket 3.8 22:03:12 10° NNW 22:08:17 54° ENE 22:08:44 52° ENE
Cosmos 921 Rocket 4.1 22:04:14 10° N 22:08:19 36° NE 22:08:19 36° NE
Cosmos 2346 Rocket 4.4 22:02:49 10° N 22:08:57 76° ENE 22:09:59 62° SE
NOSS 3-4 (A) 3.2 22:10:28 33° SW 22:13:02 83° NW 22:19:07 10° NE
Cosmos 1315 Rocket 4.4 22:15:09 26° NE 22:15:09 26° NE 22:17:05 10° NNE
NOSS 3-4 (C) 3.2 22:11:02 34° SW 22:13:31 84° NW 22:19:39 10° NE
Cosmos 1300 Rocket 3.8 22:17:12 65° N 22:17:12 65° N 22:20:56 10° N
ATLAS 3B R/B 4.3 22:10:57 10° WNW 22:18:17 39° N 22:25:32 10° ENE
Cosmos 2285 Rocket 3.9 22:19:16 63° SSE 22:19:58 69° ESE 22:26:18 10° NNE
Cosmos 967 Rocket 4.4 22:19:05 10° NW 22:25:37 87° NE 22:26:46 63° SE
NOSS 3-1 (C) 3.8 22:19:34 10° NW 22:26:14 87° NE 22:28:44 49° SE
Cosmos 1535 Rocket 4.3 22:26:51 65° SSW 22:27:50 88° W 22:34:00 10° N
ATLAS 5 CENTAUR R/B 3.4 22:25:01 10° NW 22:28:01 23° NNE 22:29:34 19° NE
RESURS DK-1 3.5 22:30:06 39° NNE 22:30:06 39° NNE 22:32:44 10° NNE
ALOS 2 3.1 22:29:40 53° NE 22:29:40 53° NE 22:33:26 10° N
Cosmos 2237 Rocket 3.0 22:29:12 19° WSW 22:33:09 49° NW 22:38:41 10° NNE
Cosmos 1125 Rocket 4.4 22:31:27 30° WSW 22:33:39 46° NW 22:38:44 10° NNE
Cosmos 1605 Rocket 3.8 22:32:45 67° SSW 22:33:40 87° W 22:39:48 10° N
Cosmos 1269 Rocket 3.9 22:31:54 10° NNW 22:37:13 80° ENE 22:37:13 80° ENE
Cosmos 2297 3.6 22:31:31 10° NW 22:37:16 74° WSW 22:37:29 73° SW
ARIANE 5 R/B 3.0 22:40:11 59° NNW 22:40:11 59° NNW 22:43:46 10° NNW
Cosmos 1975 Rocket 3.8 22:37:47 10° NNW 22:41:32 49° WNW 22:41:32 49° WNW
COSMOS 2455 3.4 22:37:40 10° NW 22:43:36 54° NE 22:45:16 41° E
Cosmos 304 Rocket 4.4 22:42:59 10° NNW 22:47:28 46° NE 22:47:28 46° NE
Cosmos 44 4.5 22:51:59 35° ENE 22:51:59 35° ENE 22:55:21 10° NE
MetOp-A 4.2 22:51:08 59° NE 22:51:08 59° NE 22:55:53 10° N
Cosmos 2150 Rocket 4.0 22:54:11 76° NW 22:54:11 76° NW 22:59:19 10° NNE
Cosmos 2173 Rocket 4.1 22:55:45 55° E 22:55:56 55° E 23:01:52 10° NNE
CZ-2C R/B 4.2 22:52:14 10° NNE 22:55:50 30° ENE 22:55:50 30° ENE
USA 234 3.5 22:53:32 10° E 23:00:02 69° N 23:06:33 10° WNW
Cosmos 2100 Rocket 4.0 23:00:25 61° ESE 23:00:41 61° E 23:06:45 10° NNE
Cosmos 2251 Rocket 4.4 22:57:39 10° NNW 23:02:42 42° NE 23:03:27 40° ENE
Cosmos 371 Rocket 3.8 22:58:06 10° NNW 23:02:35 55° NE 23:02:35 55° NE
Cosmos 2369 Rocket 2.8 22:57:46 10° NW 23:02:43 44° W 23:02:43 44° W
NOSS 3-1 (A) 3.8 23:10:39 10° NW 23:17:22 86° NE 23:19:58 48° SE
Cosmos 1943 3.4 23:21:35 60° E 23:21:35 60° E 23:26:38 10° NE
SJ 16-02 2.2 23:30:09 10° NNW 23:33:16 46° N 23:33:16 46° N
Cosmos 407 Rocket 3.8 23:29:59 10° NNW 23:34:21 59° WNW 23:34:21 59° WNW
Meteor 2-12 Rocket 4.5 23:29:36 10° N 23:35:39 66° ENE 23:36:15 62° ESE
Cosmos 1980 Rocket 4.5 23:31:22 10° NNW 23:35:41 21° NNE 23:39:59 10° ENE
ACS3 Solar Sail 3.3 23:34:45 10° NE 23:39:20 22° E 23:40:25 21° E
Cosmos 1864 Rocket 4.3 23:39:22 75° SSE 23:39:50 80° E 23:46:11 10° NNE
SL-16 R/B 2.9 23:39:53 41° W 23:41:12 49° NW 23:46:44 10° NNE
Cosmos 1802 Rocket 3.9 23:43:36 76° SSE 23:44:07 84° E 23:50:28 10° NNE
CZ-2C R/B 2.6 23:44:18 87° WNW 23:44:18 87° WNW 23:49:50 10° NNW
SL-08 R/B 4.5 23:44:27 64° ESE 23:44:48 65° E 23:50:55 10° NNE
Cosmos 2151 Rocket 4.3 23:46:57 49° NNW 23:46:57 49° NNW 23:50:23 10° N
Meteor 2-3 Rocket 3.8 23:40:28 10° NNW 23:45:50 65° W 23:45:50 65° W
Cosmos 1725 Rocket 3.8 23:48:08 76° SSE 23:48:40 83° E 23:55:02 10° NNE
Cosmos 1818 4.0 23:44:55 10° NW 23:50:20 58° NE 23:51:37 46° E
